Location: St. Louis
(38.6270°N, 90.1994°W)
Time: 01:03:32
(UTC-06:00)

Courier 1B Rocket - Pass Details

Date: 09 December 2021
Orbit: 920 x 1202 km, 28.2° (Epoch: 16 January)

Event Time Altitude Azimuth Distance (km) Brightness Sun altitude
Rises 00:57:27 0° 260° (W) 3,624 - -69.1°
Reaches altitude 10° 01:00:52 10° 243° (WSW) 2,643 - -68.6°
Maximum altitude 01:05:12 19° 200° (SSW) 2,022 - -68.0°
Drops below altitude 10° 01:09:28 10° 156° (SSE) 2,599 - -67.3°
Sets 01:12:48 0° 139° (SE) 3,543 - -66.8°
